Tracking 19644 objects as of 25-Apr-2019
HD Live streaming from Space Station
objects crossing your sky now

SL-16 DEB

Track SL-16 DEB now!
10-day predictions


NORAD ID: 39875
Int'l Code: 1993-016AZ
Perigee: 763.3 km
Apogee: 964.6 km
Inclination: 71.0 °
Period: 102.1 minutes
Semi major axis: 7234 km
RCS: 0.0059 m2 (small)
Launch date: March 26, 1993
Source: Commonwealth of Independent States (former USSR) (CIS)
Launch site: TYURATAM MISSILE AND SPACE COMPLEX (TTMTR)

Note: This is SATELLITE DEBRIS
aabbcc
Your satellite tracking list
Your tracking list is empty




NASA's NSSDC Master Catalog

Two Line Element Set (TLE):
1 39875U 93016AZ  14200.05863342 +.00003955 +00000-0 +20426-2 0  9997
2 39875 070.9598 097.1391 0139072 304.2127 044.7489 14.10752638505837
Source of the keplerian elements: AFSPC